• Join FlightAware (Why Join?)
  • Login
  • US Flag 
03:51AM EST


 

Airport Tracker/Info


-or-


 

Live Flight TrackerFlight Track Log ✈ AAY805 ✈ 5 de Jun de 2014 ✈ KCHA - KPIE

Flight Track Log - Related Links

Times and Time Zones

All times are in EDT time to prevent confusion due to time zone crossing. See the AAY805 flight status page for this flight to view local times or setup timezone preferences in your user account.

Time Position Orientation Groundspeed Altitude Reporting Facility
EDT Latitude Longitude Course Direction KTS MPH feet Rate Location/Type
02:09PM 35.1089 -85.0797 166° South 270 311 5,700  Level Atlanta Center
02:10PM 35.0297 -85.0558 166° South 229 264 8,500 2,640 Climbing Atlanta Center
02:11PM 34.9467 -85.0169 159° South 270 311 11,000 2,100 Climbing Atlanta Center
02:12PM 34.8531 -84.9753 160° South 315 362 12,700 1,980 Climbing Atlanta Center
02:13PM 34.7531 -84.9311 160° South 363 418 15,000 2,220 Climbing Atlanta Center
02:14PM 34.6408 -84.8794 159° South 382 440 17,200 2,100 Climbing Atlanta Center
02:15PM 34.5325 -84.8331 161° South 400 460 19,300 1,920 Climbing Atlanta Center
02:16PM 34.4222 -84.7817 159° South 411 473 21,100 1,800 Climbing Atlanta Center
02:17PM 34.3119 -84.7356 161° South 421 484 23,000 1,680 Climbing Atlanta Center
02:18PM 34.1975 -84.6842 160° South 428 493 24,500 1,260 Climbing Atlanta Center
02:19PM 34.0872 -84.6358 160° South 445 512 25,600 1,260 Climbing Atlanta Center
02:20PM 33.9706 -84.5847 160° South 450 518 27,100 1,440 Climbing Atlanta Center
02:21PM 33.8475 -84.5342 161° South 450 518 28,500 900 Climbing Atlanta Center
02:22PM 33.7225 -84.4783 160° South 465 535 29,000 540 Climbing Atlanta Center
02:23PM 33.6017 -84.4428 166° South 465 535 29,600 900 Climbing Atlanta Center
02:24PM 33.4658 -84.4322 176° South 471 542 30,800 1,200 Climbing Atlanta Center
02:25PM 33.3344 -84.4292 179° South 476 548 32,000 1,200 Climbing Atlanta Center
02:26PM 33.2008 -84.4286 180° South 481 554 33,200 1,500 Climbing Atlanta Center
02:27PM 33.0694 -84.4256 179° South 475 547 35,000 1,500 Climbing Atlanta Center
02:28PM 32.9419 -84.4225 179° South 470 541 36,300 960 Climbing Atlanta Center
02:29PM 32.8167 -84.4194 179° South 465 535 37,000 300 Climbing Atlanta Center
02:30PM 32.6811 -84.4189 180° South 454 522 37,000  Level Atlanta Center
02:31PM 32.5539 -84.4158 179° South 454 522 37,000  Level Atlanta Center
02:32PM 32.4264 -84.4128 179° South 454 522 37,000  Level Atlanta Center
02:33PM 32.3014 -84.4100 179° South 460 529 37,000  Level Atlanta Center
02:34PM 32.1739 -84.4069 179° South 460 529 37,000  Level Atlanta Center
02:36PM 32.0197 -84.4044 179° South 462 532 37,000  Level Jacksonville Center
02:37PM 31.8925 -84.4022 179° South 457 526 37,000  Level Jacksonville Center
02:38PM 31.7672 -84.3978 178° South 457 526 37,000  Level Jacksonville Center
02:39PM 31.6503 -84.3983 180° South 462 532 37,000  Level Jacksonville Center
02:40PM 31.5250 -84.3964 179° South 456 525 37,000 -300 Level Jacksonville Center
02:41PM 31.3978 -84.3919 178° South 456 525 36,400 -780 Descending Jacksonville Center
02:42PM 31.2725 -84.3900 179° South 456 525 35,500 -720 Descending Jacksonville Center
02:43PM 31.1431 -84.3878 179° South 456 525 35,000 -300 Descending Jacksonville Center
02:44PM 31.0200 -84.3833 178° South 456 525 35,000  Level Jacksonville Center
02:45PM 30.8947 -84.3814 179° South 451 519 35,000 -360 Level Jacksonville Center
02:46PM 30.7694 -84.3794 179° South 451 519 34,300 -900 Descending Jacksonville Center
02:47PM 30.6442 -84.3775 179° South 451 519 33,300 -660 Descending Jacksonville Center
02:48PM 30.5192 -84.3539 171° South 456 525 33,000 -180 Descending Jacksonville Center
02:49PM 30.4072 -84.2775 150° Southeast 448 516 33,000  Level Jacksonville Center
02:50PM 30.2994 -84.2061 150° Southeast 454 522 33,000  Level Jacksonville Center
02:51PM 30.1792 -84.1278 151° Southeast 454 522 33,000 -60 Level Jacksonville Center
02:52PM 30.0669 -84.0592 152° Southeast 454 522 32,900 -60 Descending Jacksonville Center
02:53PM 29.9569 -83.9858 150° Southeast 454 522 32,900  Level Jacksonville Center
02:54PM 29.8492 -83.9128 150° Southeast 454 522 33,000  Climbing Jacksonville Center
02:55PM 29.7472 -83.8494 152° Southeast 459 528 33,000  Level Jacksonville Center
02:56PM 29.6372 -83.7767 150° Southeast 454 522 33,000 -300 Level Jacksonville Center
02:57PM 29.5269 -83.7089 152° Southeast 454 522 32,500 -1,080 Descending Jacksonville Center
02:58PM 29.4147 -83.6342 150° Southeast 454 522 30,900 -1,920 Descending Jacksonville Center
02:59PM 29.3064 -83.5664 151° Southeast 454 522 28,700 -2,160 Descending Jacksonville Center
03:00PM 29.2025 -83.4992 151° Southeast 444 511 26,600 -1,980 Descending Jacksonville Center
03:01PM 29.0964 -83.4319 151° Southeast 439 505 24,800 -1,800 Descending Jacksonville Center
03:02PM 28.9983 -83.3697 151° Southeast 425 489 23,100 -1,800 Descending Jacksonville Center
03:03PM 28.9006 -83.3075 151° Southeast 409 471 21,200 -1,860 Descending Jacksonville Center
03:04PM 28.8069 -83.2456 150° Southeast 403 464 19,400 -1,800 Descending Jacksonville Center
03:05PM 28.7150 -83.1908 152° Southeast 386 444 17,700 -1,620 Descending Jacksonville Center
03:06PM 28.6256 -83.1361 152° Southeast 375 432 16,200 -1,620 Descending Jacksonville Center
03:07PM 28.5000 -83.0500 149° Southeast 352 405 13,900 -1,440 Descending Tampa TRACON
03:08PM 28.4333 -83.0167 156° South 345 397 13,000 -960 Descending Tampa TRACON
03:09PM 28.3500 -82.9667 152° Southeast 316 364 12,200 -1,500 Descending Tampa TRACON
03:10PM 28.3083 -82.9289 141° Southeast 309 356 10,400 -2,220 Descending Miami Center
03:11PM 28.2378 -82.8806 149° Southeast 302 348 8,100 -2,340 Descending Miami Center
03:12PM 28.1500 -82.8167 147° Southeast 274 315 5,400 -2,280 Descending Tampa TRACON
03:13PM 28.1000 -82.7500 130° Southeast 255 293 3,100 -1,620 Descending Tampa TRACON
03:14PM 28.0500 -82.6833 130° Southeast 256 295 2,000 -780 Descending Tampa TRACON
03:15PM 28.0000 -82.6667 164° South 198 228 1,600 -600 Descending Tampa TRACON
03:16PM 27.9500 -82.7000 210° Southwest 163 188 800 -840 Descending Tampa TRACON